Temp
4 3 3 3 3 2 2 2 2 2 1 1 1 1 1 0 0 -0 -1 -1 -1 -2 -2 -2 -2 -3 -3 -3 -3 -4 -4 -4 -4 -4 -4 -4 -4 -4 -4 -4 -4 -4
4 3 3 3 2 2 2 2 2 2 2 2 1 1 1 0 0 -0 -1 -1 -1 -2 -2 -2 -3 -3 -3 -3 -4 -4 -4 -4 -4 -4 -5 -5 -5 -5 -5 -5 -5 -5
4 3 3 3 3 3 3 2 2 2 2 2 1 1 1 1 0 -0 -1 -1 -1 -2 -2 -2 -3 -3 -3 -3 -4 -4 -4 -4 -4 -5 -5 -5 -5 -5 -5 -5 -5 -5
4 4 3 3 3 3 3 2 2 2 2 1 2 1 1 1 0 0 -0 -1 -1 -2 -2 -2 -3 -3 -3 -3 -4 -4 -4 -4 -4 -5 -5 -5 -5 -5 -5 -5 -5 -6
5 5 4 4 3 3 2 2 2 2 2 2 2 1 1 1 1 0 -0 -1 -1 -1 -2 -2 -3 -3 -3 -3 -4 -4 -4 -5 -5 -5 -5 -5 -5 -6 -5 -6 -6 -6
6 5 5 4 4 3 2 2 2 2 2 2 2 1 1 1 1 1 0 -0 -1 -1 -2 -2 -2 -3 -3 -3 -4 -4 -4 -5 -5 -5 -5 -5 -6 -6 -6 -6 -6 -6
6 6 5 5 4 3 3 3 2 2 2 2 2 2 1 1 1 1 0 0 -0 -1 -1 -2 -2 -3 -3 -3 -4 -4 -5 -5 -5 -5 -5 -5 -6 -6 -6 -6 -6 -7
6 6 5 5 4 3 3 3 3 3 3 2 2 2 1 1 1 1 1 0 -0 -1 -1 -2 -2 -2 -3 -3 -4 -4 -5 -5 -5 -5 -5 -6 -6 -6 -6 -6 -7 -7
4 4 4 3 3 3 3 3 3 3 3 3 2 2 2 1 1 1 1 0 -0 -1 -1 -2 -2 -2 -3 -3 -4 -4 -4 -5 -5 -5 -5 -5 -6 -6 -6 -6 -7 -7
3 3 3 3 2 2 3 3 3 4 3 3 3 2 2 1 1 1 1 0 -0 -0 -1 -2 -2 -2 -3 -3 -4 -4 -4 -4 -5 -5 -5 -5 -6 -6 -6 -6 -7 -7
3 3 3 2 2 2 2 3 3 3 3 3 2 2 2 2 1 1 0 0 -0 -0 -1 -1 -2 -2 -3 -3 -3 -4 -4 -4 -5 -5 -5 -5 -5 -6 -6 -6 -7 -7
2 2 2 2 2 2 2 2 2 2 2 2 2 2 2 1 1 1 0 0 -0 -0 -1 -1 -2 -2 -2 -3 -3 -4 -4 -4 -5 -5 -5 -5 -6 -6 -6 -6 -7 -7
0 0 0 0 1 1 1 1 1 1 1 1 2 1 1 1 1 1 0 -0 -0 -0 -1 -1 -1 -2 -2 -3 -3 -4 -4 -5 -5 -5 -5 -6 -6 -6 -6 -7 -7 -7
-1 -1 -1 -1 -1 -1 -0 -0 0 0 0 1 1 0 0 0 0 0 -0 -0 -0 -1 -1 -1 -2 -2 -3 -3 -4 -4 -4 -5 -5 -5 -6 -6 -6 -6 -7 -7 -7 -8
-2 -2 -2 -2 -2 -2 -2 -1 -1 -1 -1 -0 -0 -1 -1 -1 -1 -1 -1 -1 -1 -1 -1 -2 -2 -2 -3 -3 -4 -4 -5 -5 -5 -6 -6 -6 -7 -7 -7 -7 -8 -8
-3 -3 -3 -3 -3 -3 -3 -3 -3 -2 -2 -2 -2 -2 -2 -2 -2 -2 -2 -2 -2 -2 -2 -2 -3 -3 -3 -3 -4 -4 -5 -5 -6 -6 -6 -7 -7 -8 -8 -8 -8 -8
-5 -5 -4 -4 -4 -4 -4 -4 -4 -4 -4 -4 -4 -3 -3 -3 -3 -3 -3 -3 -3 -3 -3 -3 -4 -4 -4 -4 -5 -5 -5 -6 -6 -7 -7 -7 -8 -8 -8 -9 -9 -9
-6 -6 -6 -5 -5 -5 -5 -5 -5 -5 -5 -5 -5 -5 -5 -5 -5 -5 -5 -5 -5 -5 -5 -5 -5 -5 -5 -5 -6 -6 -6 -6 -7 -7 -8 -8 -8 -8 -9 -9 -9 -10
-7 -7 -7 -7 -7 -7 -6 -6 -6 -6 -6 -6 -6 -6 -6 -6 -6 -6 -6 -6 -6 -6 -6 -6 -6 -6 -6 -6 -6 -7 -7 -7 -7 -7 -8 -8 -9 -9 -9 -9 -10 -10
-8 -8 -8 -8 -8 -8 -7 -7 -7 -7 -7 -7 -7 -7 -7 -7 -7 -7 -7 -7 -7 -7 -7 -7 -7 -7 -7 -7 -7 -7 -7 -7 -8 -8 -8 -9 -9 -9 -10 -10 -10 -11
-10 -10 -9 -9 -9 -9 -9 -9 -8 -8 -8 -8 -8 -8 -8 -8 -8 -8 -8 -8 -8 -8 -8 -8 -8 -8 -8 -8 -8 -8 -7 -7 -7 -8 -9 -9 -9 -9 -10 -10 -10 -11
-11 -11 -11 -10 -10 -10 -10 -10 -10 -10 -9 -9 -9 -9 -9 -9 -9 -9 -9 -9 -9 -9 -9 -9 -9 -9 -9 -9 -9 -8 -8 -8 -8 -8 -9 -9 -10 -10 -10 -10 -11 -11
-12 -12 -12 -11 -11 -11 -11 -11 -11 -11 -10 -10 -10 -10 -10 -10 -10 -10 -10 -10 -10 -10 -10 -10 -10 -10 -10 -10 -10 -9 -9 -8 -8 -8 -9 -10 -10 -10 -11 -11 -11 -11
-13 -12 -12 -12 -12 -12 -12 -12 -12 -11 -11 -11 -11 -11 -11 -11 -11 -11 -11 -11 -11 -11 -11 -11 -11 -11 -11 -11 -10 -10 -9 -9 -9 -9 -10 -10 -11 -11 -12 -12 -12 -12
-13 -13 -13 -13 -13 -13 -13 -13 -13 -12 -12 -12 -12 -12 -12 -12 -12 -12 -12 -12 -12 -12 -12 -12 -12 -12 -12 -12 -11 -11 -10 -10 -10 -10 -11 -11 -12 -12 -12 -12 -12 -13
-13 -13 -13 -14 -14 -14 -14 -13 -13 -13 -13 -13 -13 -13 -13 -13 -13 -13 -13 -13 -13 -13 -13 -13 -13 -12 -12 -12 -12 -12 -11 -11 -11 -11 -11 -12 -12 -12 -13 -13 -13 -13
Height
767 768 768 769 769 769 770 770 771 772 772 773 773 772 773 773 775 777 777 778 779 780 781 783 785 786 788 789 791 792 792 793 794 796 798 798 799 800 801 802 803 804
764 764 765 765 765 765 765 765 766 767 768 768 768 768 769 770 771 772 772 773 774 774 776 778 779 781 783 784 786 787 787 788 789 791 793 793 794 796 796 797 798 799
760 761 761 761 760 760 761 761 763 763 763 764 764 764 764 765 766 767 767 768 768 769 771 772 774 776 777 779 781 781 782 783 783 786 788 788 789 790 791 793 794 795
756 756 757 756 756 756 757 758 759 759 759 758 759 759 760 761 761 761 762 762 763 764 765 766 768 770 771 773 776 776 776 777 778 781 783 782 784 785 786 789 790 790
752 752 752 752 752 752 753 754 753 753 754 753 753 754 755 756 756 756 756 757 757 758 759 761 762 764 766 768 769 770 771 772 774 776 777 777 778 780 781 784 785 786
749 748 748 748 748 748 749 748 748 748 749 748 748 749 750 751 751 751 751 751 751 752 753 755 756 757 759 761 763 763 764 766 768 771 771 771 773 775 776 778 779 780
745 745 744 744 744 744 744 743 743 744 743 743 744 744 745 745 745 745 746 746 746 746 747 748 750 751 753 755 757 757 758 760 762 765 765 765 768 770 771 773 774 775
743 742 742 741 740 740 739 739 739 739 739 739 739 738 739 740 739 740 740 741 741 740 741 742 743 745 747 749 750 750 753 755 756 759 759 760 763 764 765 767 769 770
742 742 740 739 738 737 736 735 734 734 735 735 734 733 734 734 734 734 735 735 735 735 736 737 737 739 741 742 743 744 746 748 750 752 753 754 756 757 759 762 763 764
740 739 738 737 736 735 733 732 731 731 731 730 730 729 729 729 729 729 730 730 730 730 730 731 732 733 735 736 737 738 740 742 744 746 746 748 749 750 753 756 757 758
738 737 736 734 733 732 731 730 729 729 728 727 727 726 725 725 724 724 725 725 724 724 725 725 726 728 729 730 731 732 734 736 738 740 741 742 743 745 748 750 751 753
736 735 734 732 731 730 728 728 727 726 725 724 723 722 721 720 720 720 720 719 719 719 720 720 721 722 723 724 726 728 729 731 733 734 735 737 739 740 742 745 746 748
735 733 732 730 729 728 726 725 724 723 722 721 720 719 717 716 716 715 715 715 715 715 716 716 717 718 718 720 721 723 725 727 728 730 731 733 734 736 738 740 742 744
733 732 731 729 727 726 724 723 722 720 719 718 717 715 714 713 712 712 712 712 712 712 712 713 713 714 715 716 718 719 721 722 724 725 727 729 730 732 734 736 737 739
732 730 729 727 726 724 722 721 720 718 717 715 714 713 711 711 710 710 710 709 710 710 710 710 711 711 712 713 714 716 717 718 720 722 723 725 727 728 730 732 733 735
731 729 727 726 724 722 721 720 718 717 716 714 713 712 710 710 709 708 708 708 708 708 708 708 708 709 710 710 711 713 714 715 717 718 719 721 722 724 726 728 729 731
731 729 727 725 724 722 721 719 718 716 715 713 712 711 710 709 708 708 707 707 707 707 707 707 707 707 708 709 710 711 711 713 714 715 716 717 719 720 722 724 726 727
731 729 728 726 724 722 720 719 717 716 714 713 712 711 710 709 708 707 707 707 706 706 706 706 706 706 707 708 708 709 709 710 711 712 713 714 715 717 718 720 722 724
732 729 728 725 724 722 720 718 717 715 714 712 711 710 709 708 708 707 706 706 706 705 705 705 705 705 706 706 707 708 708 708 708 709 710 711 712 713 715 717 719 721
731 729 727 725 723 721 719 718 716 714 713 712 711 709 708 707 707 706 705 705 705 704 704 704 704 704 705 705 706 706 707 707 706 706 706 707 708 710 712 713 715 717
731 729 727 724 722 720 718 717 715 714 712 711 710 708 707 707 706 705 704 704 703 703 702 702 703 703 703 704 704 705 705 705 704 703 703 704 705 707 708 710 712 714
732 729 727 724 722 720 718 716 714 713 711 710 709 708 706 706 705 704 704 703 702 702 701 701 701 702 702 702 703 703 703 703 703 701 700 701 702 703 705 707 709 710
732 729 727 724 722 720 718 716 714 712 711 709 708 707 706 705 704 704 703 702 702 701 701 700 700 701 701 701 701 701 701 701 701 699 699 699 700 701 702 703 705 707
731 729 727 724 722 720 718 716 714 712 711 709 708 707 706 705 704 703 703 702 701 701 701 700 700 700 700 700 700 700 700 700 699 698 697 698 698 699 700 701 702 704
731 729 727 724 722 720 718 716 714 712 711 709 708 707 706 705 704 703 702 702 701 701 700 700 699 699 699 699 699 699 699 699 698 697 696 697 697 698 699 700 701 702
731 729 727 724 722 720 718 716 714 712 710 709 708 707 705 704 704 703 702 701 701 700 700 700 699 699 699 699 699 698 698 698 697 697 697 697 697 697 698 699 699 700
Wind_Speed
46 46 45 44 44 45 45 44 43 42 41 40 41 43 45 46 46 45 46 48 49 50 51 50 49 49 48 47 47 47 47 46 47 46 45 46 47 45 44 44 43 42
45 45 44 43 43 44 45 45 44 42 42 42 42 43 43 43 43 44 45 46 48 49 50 49 50 49 48 48 47 47 47 46 46 45 45 46 46 46 46 45 44 43
43 43 44 44 45 45 46 44 43 42 42 43 42 42 42 42 42 42 44 46 47 49 49 49 49 49 48 48 47 47 47 47 47 46 45 46 46 46 46 45 44 44
41 43 44 45 46 46 45 43 41 42 42 43 44 43 43 41 40 41 43 45 46 47 48 48 49 49 49 48 47 47 48 47 47 45 44 46 46 45 46 44 43 44
40 41 42 44 45 45 44 42 42 43 43 44 45 44 43 41 41 41 41 43 45 47 47 47 48 48 48 48 47 47 47 46 45 44 43 45 45 45 45 44 43 43
37 39 40 42 43 43 42 42 43 44 43 44 45 44 43 42 42 42 41 42 44 46 46 46 47 48 48 47 47 48 47 46 45 44 44 45 44 44 44 43 43 43
34 36 38 39 41 41 41 42 43 43 43 44 44 43 42 42 43 43 42 43 43 44 45 46 47 47 47 47 47 47 47 46 45 43 45 45 43 43 43 42 42 43
33 34 36 37 38 38 39 40 41 42 43 42 43 43 42 42 43 43 42 42 43 44 45 46 47 47 47 46 46 47 46 45 45 43 44 45 42 42 43 42 42 43
30 32 34 35 35 36 38 39 40 40 41 41 41 42 42 41 42 42 42 41 42 43 43 44 45 46 46 46 47 47 47 46 45 45 45 45 44 44 43 42 41 42
23 26 28 31 32 34 36 37 38 38 39 39 39 40 40 40 41 41 40 40 40 41 42 43 44 45 45 46 47 47 47 47 46 45 46 46 45 45 43 42 42 42
23 23 23 25 27 30 33 35 36 36 36 36 36 37 38 39 39 39 38 39 40 41 41 42 43 44 44 46 47 47 47 47 46 46 46 46 46 45 44 42 42 43
22 21 20 21 22 24 26 28 30 31 32 33 33 34 36 37 37 37 37 38 39 40 40 41 42 42 44 45 46 45 45 45 45 45 45 45 45 44 43 42 42 42
19 18 18 19 19 19 19 20 22 23 25 27 28 30 33 34 35 36 36 37 38 38 38 39 39 40 41 42 43 43 43 43 44 43 43 43 43 42 41 41 41 41
20 19 19 19 19 18 19 18 19 19 20 21 22 24 27 30 32 33 34 34 35 35 36 36 36 37 38 39 40 40 41 42 42 41 41 40 40 39 39 39 40 40
21 21 20 20 20 19 19 19 19 19 18 19 19 19 21 23 26 27 28 29 30 31 32 32 33 34 36 36 37 38 38 39 39 39 39 38 37 37 37 38 38 38
22 22 22 22 21 20 20 19 18 18 18 17 17 17 17 17 19 20 21 23 25 26 27 28 30 31 32 33 34 35 36 36 36 37 37 37 36 36 35 35 36 37
22 23 22 22 22 21 20 20 20 19 18 18 17 16 16 15 15 15 16 17 18 20 22 24 26 27 28 29 30 31 33 34 34 35 35 35 35 34 34 34 35 35
23 23 23 22 22 22 22 21 21 21 20 19 18 17 16 16 15 15 15 15 16 17 19 20 22 23 24 25 25 27 29 31 33 33 33 33 34 34 34 33 32 33
25 25 25 24 24 23 23 22 22 21 21 20 20 19 18 17 16 16 15 16 16 17 18 19 20 21 21 22 22 22 23 26 30 32 32 32 33 33 33 32 31 31
27 27 26 26 25 24 23 22 22 22 21 20 20 19 19 18 18 17 17 16 16 16 18 18 19 19 19 20 19 19 20 23 27 31 32 32 33 33 32 32 31 31
27 26 26 25 25 24 24 23 22 22 21 20 20 19 19 18 18 18 17 17 17 17 18 18 18 18 18 18 17 18 19 22 26 29 31 32 33 33 32 32 32 32
26 25 25 25 24 24 24 23 22 22 21 20 20 19 18 18 17 17 17 17 17 17 17 18 18 17 17 16 16 17 19 21 25 26 26 30 32 32 32 32 32 32
24 24 24 24 23 23 23 22 22 21 20 19 18 18 17 17 17 17 16 17 17 16 17 17 17 17 16 15 15 17 18 20 23 23 21 24 28 29 31 32 32 32
22 22 23 23 23 22 22 21 20 19 18 17 16 16 16 16 16 16 15 15 15 15 15 15 16 16 15 15 14 15 17 18 20 20 18 19 23 25 27 29 30 30
21 21 22 22 22 21 21 20 19 18 17 16 15 14 14 14 14 14 14 13 13 13 13 13 14 14 14 14 13 14 15 16 15 14 14 16 19 21 22 25 26 27
20 21 22 22 21 20 19 18 17 17 16 15 14 14 13 13 12 12 12 12 12 13 12 12 13 13 13 13 13 13 14 16 13 9 8 11 15 17 19 22 24 26
Wind_Direction
237 238 238 239 240 241 242 242 242 242 241 240 240 240 240 240 240 237 235 234 234 234 233 232 232 232 231 230 229 229 229 229 229 228 227 227 228 228 227 227 226 226
238 239 240 240 242 243 244 244 244 243 243 243 243 244 243 243 241 238 237 236 235 235 234 233 233 232 232 231 229 229 229 229 229 228 228 228 229 228 228 228 227 227
240 240 241 241 243 244 245 246 245 245 246 246 246 246 245 245 243 240 239 237 236 236 235 234 233 233 232 231 230 229 229 229 229 228 228 229 229 228 229 229 229 228
244 244 243 244 245 246 247 247 247 246 247 247 247 247 247 245 244 242 240 238 237 237 236 234 233 232 232 231 230 230 230 230 230 228 228 229 229 229 229 229 229 229
251 249 248 247 247 248 248 247 247 248 248 249 249 249 248 246 244 242 240 238 237 236 236 234 233 232 232 231 230 230 230 230 230 228 228 229 229 228 229 229 229 229
256 255 253 252 251 250 248 248 249 249 249 250 251 250 249 247 246 243 241 239 237 236 235 234 233 232 231 230 229 229 230 229 229 227 227 229 229 228 228 227 228 229
261 261 259 257 255 252 250 250 251 251 252 253 253 252 250 248 247 245 243 241 239 237 235 234 233 232 231 229 228 229 229 229 229 227 227 229 229 228 228 227 227 228
270 269 266 262 258 255 253 253 254 254 255 254 254 254 253 250 249 247 245 243 240 238 236 234 233 232 230 228 228 228 228 228 228 226 227 228 227 228 227 226 226 227
284 279 274 269 263 259 257 257 258 259 258 256 256 257 256 253 251 250 247 244 242 240 237 234 233 232 230 228 227 228 227 227 227 226 226 227 226 227 227 225 225 226
308 298 288 279 272 267 264 263 263 263 262 259 259 260 259 257 255 252 249 245 242 240 238 235 234 232 230 229 228 228 228 227 227 226 226 227 226 227 226 224 224 225
324 318 308 296 287 280 275 272 270 268 267 265 265 265 264 262 258 254 250 246 243 242 239 236 235 232 230 229 229 228 228 228 228 227 227 227 228 228 227 224 224 224
326 324 319 312 305 297 290 285 281 277 275 274 273 271 270 266 261 256 252 248 246 244 241 238 237 234 231 231 230 229 228 229 228 228 228 228 228 228 227 226 225 225
334 332 329 325 321 316 310 304 298 293 289 286 283 279 275 270 265 260 255 252 249 246 243 241 238 235 234 232 230 229 228 228 228 228 228 229 229 229 228 227 226 225
338 335 332 329 325 322 319 316 313 309 304 301 296 289 282 276 271 266 261 256 252 248 246 244 240 237 235 233 231 230 229 228 228 228 228 229 229 230 229 227 226 225
340 337 335 332 329 327 324 322 320 318 315 313 310 302 294 285 277 271 266 261 256 252 249 246 243 240 238 235 233 231 229 229 228 228 228 228 228 228 228 227 225 224
344 342 341 340 339 337 334 331 329 326 324 321 319 315 308 298 288 280 273 267 262 258 253 249 246 244 242 239 236 233 230 229 228 228 228 227 227 226 225 225 224 223
349 348 346 345 344 341 338 336 334 331 329 326 324 321 316 311 305 297 288 280 272 265 260 256 253 251 248 244 241 238 234 230 228 228 228 226 226 225 224 224 223 222
352 349 346 344 342 340 337 335 331 330 330 328 326 323 319 315 312 306 300 292 285 277 271 266 262 259 255 251 246 241 238 234 231 229 227 227 226 225 225 224 222 221
347 343 340 338 337 336 333 331 329 328 328 328 326 324 321 319 315 311 305 299 293 287 281 276 271 266 261 257 252 243 238 236 234 231 229 227 226 225 225 223 221 219
343 341 338 334 334 333 331 330 329 327 327 325 324 323 321 321 318 315 311 306 301 295 289 284 279 274 269 263 255 247 240 238 237 235 231 230 229 227 225 223 221 219
341 340 337 334 333 332 331 330 328 328 326 324 323 322 321 321 319 316 314 310 305 300 295 290 286 282 278 270 261 256 252 248 244 240 233 230 230 228 226 224 222 220
339 338 336 335 334 332 332 332 329 327 325 323 322 320 318 319 318 316 314 311 308 304 299 296 293 289 284 278 271 267 263 259 257 252 238 229 227 227 225 224 222 221
337 338 337 336 335 334 334 334 331 327 324 324 322 319 319 319 316 314 313 311 309 307 303 300 299 296 292 286 280 276 272 267 265 264 251 232 225 225 223 222 221 221
337 338 338 338 338 337 336 334 332 330 328 327 324 321 320 319 316 314 313 311 310 309 307 304 302 301 297 292 288 283 279 276 272 268 256 236 225 223 223 222 221 220
340 340 340 340 340 339 337 335 334 333 332 331 329 326 324 323 322 320 318 317 315 313 312 310 308 307 304 300 299 293 289 293 288 269 248 234 225 222 224 225 224 222
341 342 341 343 344 342 341 340 338 337 337 336 334 332 331 329 328 326 323 321 320 318 318 316 313 313 312 308 308 305 300 303 303 284 253 241 233 228 228 229 229 228